Regional Weather Roundup
Issued by NWS

Home | Current Version | Previous Version | Text Only | Print | Product List | Glossary Off
Versions: 1 2 3 4 5 6 7 8 9 10 11 12 13 14 15 16 17 18 19 20 21 22 23 24 25 26 27 28 29 30 31 32 33 34 35 36 37 38 39 40 41 42 43 44 45 46 47 48 49 50

000
ASUS43 KOAX 231002
RWRNE

WEATHER ROUNDUP FOR NEBRASKA
NATIONAL WEATHER SERVICE OMAHA NE
500 AM CDT THU OCT 23 2014

NOTES: SATELLITE DATA IS BEING USED TO AUGMENT CLOUD COVER ABOVE
       12000 FEET.
       "FAIR" INDICATES FEW OR NO CLOUDS BELOW 12,000 FEET WITH NO
       SIGNIFICANT WEATHER AND/OR OBSTRUCTIONS TO VISIBILITY.

  * THESE STATIONS DO NOT REPORT WEATHER SUCH AS RAIN...SNOW OR FOG.

NEZ001>004-019>022-054>056-231100-
NEBRASKA PANHANDLE

CITY           SKY/WX    TMP DP  RH WIND       PRES   REMARKS
SCOTTSBLUFF    PTCLDY    33  28  81 CALM      30.10F
ALLIANCE       CLEAR     26  22  84 W7        30.08F WCI  18
CHADRON        CLEAR     33  26  75 W5        30.05F WCI  29
KIMBALL        CLEAR     36  33  88 W6        30.11F WCI  31
SIDNEY         CLEAR     37  31  78 NW6       30.12F WCI  32
$$

NEZ057>060-069>072-079>082-231100-
SOUTHWEST NEBRASKA

CITY           SKY/WX    TMP DP  RH WIND       PRES   REMARKS
NORTH PLATTE   FOG       47  46  97 W5        30.09S VSB 1/4
IMPERIAL       CLEAR     39  32  76 W3        30.11R
LEXINGTON      FOG       49  48  97 CALM      30.08R VSB 1/4
MCCOOK         FOG       45  45 100 SW3       30.10R VSB 1/4
OGALLALA       CLEAR     34  33  94 W6        30.11S WCI  29
$$

NEZ005>010-023>029-035>040-094-231100-
NORTH CENTRAL NEBRASKA

CITY           SKY/WX    TMP DP  RH WIND       PRES   REMARKS
VALENTINE      CLEAR     36  35  96 SW6       30.04F WCI  31
AINSWORTH      CLEAR     41  40  96 SW5       30.04S
BROKEN BOW     FOG       39  38  96 CALM      30.06R VSB 3/4
O`NEILL        CLEAR     42  42 100 SW5       30.05S FOG
ORD            CLOUDY    39  38  96 CALM      30.05S FOG
THEDFORD       LGT RAIN  46  45  98 SW7       30.08R VSB 1/4
$$

NEZ041-046>049-061>064-073>077-083>087-231100-
SOUTH CENTRAL NEBRASKA

CITY           SKY/WX    TMP DP  RH WIND       PRES   REMARKS
GRAND ISLAND   FOG       46  44  93 NW3       30.06S VSB 1/2
AURORA         FOG       53  53 100 CALM      30.05S VSB<1/4
HASTINGS       FOG       51  49  92 N3        30.05S VSB 1/4
HEBRON         FOG       55  53  92 CALM      30.05S VSB 1/4
HOLDREGE       FOG       47  46  97 CALM      30.07S VSB 1/4
KEARNEY *      CLOUDY    48  46  93 W5        30.07S VSB<1/4
YORK           FOG       57  57 100 N8        30.05S VSB 1/2
$$

NEZ011>018-030>034-042>045-231100-
NORTHEAST NEBRASKA

CITY           SKY/WX    TMP DP  RH WIND       PRES   REMARKS
NORFOLK        FOG       45  45 100 NW3       30.04S VSB 1/2
ALBION         MOCLDY    39  37  93 CALM      30.06S FOG
BLAIR          CLOUDY    62  59  91 SW5       30.03R
COLUMBUS *     CLOUDY    46  43  87 NW3       30.06S VSB 1/4
FREMONT        FOG       58  57  96 CALM      30.04R VSB 1/4
TEKAMAH        PTCLDY    58  56  93 W6        30.02R FOG
WAYNE          FOG       43  43  99 SW3       30.04S VSB 3/4
$$

NEZ050>053-065>068-078-088>093-231100-
SOUTHEAST NEBRASKA

CITY           SKY/WX    TMP DP  RH WIND       PRES   REMARKS
LINCOLN        CLOUDY    60  58  92 CALM      30.05R
OMAHA EPPLEY   CLOUDY    62  59  90 S6        30.03S
BEATRICE       PTCLDY    60  58  92 SW3       30.04S
FALLS CITY     CLOUDY    61  60  97 S9        30.05F
NEBRASKA CITY  CLOUDY    60  60 100 S7        30.04S FOG
PLATTSMOUTH    CLOUDY    61  58  92 S6        30.04S
$$

NEZ044-045-051>053-067-231100-
OMAHA AREA

CITY           SKY/WX    TMP DP  RH WIND       PRES   REMARKS
OMAHA EPPLEY   CLOUDY    62  59  90 S6        30.03S
BLAIR          CLOUDY    62  59  91 SW5       30.03R
FREMONT        FOG       58  57  96 CALM      30.04R VSB 1/4
OFFUTT AFB     MOCLDY    62  62 100 S6        30.02F
PLATTSMOUTH    CLOUDY    61  58  92 S6        30.04S
WAHOO          PTSUNNY   58  56  91 SW3       30.04R FOG
$$



USA.gov is the U.S. government's official web portal to all federal, state and local government web resources and services.